sat.trackr.live / text

‹ back to catalog

STARLINK-32731

NORAD 62493 · 2025-003G

PAYLOAD ACTIVE UNKNOWN

§ Identity

Operator
Country
US
Launch date
2025-01-06
Launch site
AFETR
Launch vehicle
Mass (kg)
RCS (m²)

Purposes: comms

External: N2YO · Heavens-Above · Gunter

§ Orbital elements

Epoch: 2026-05-24T21:45:25.057728Z

Period
94.27 min
Inclination
42.9998°
Eccentricity
0.0000918
Mean motion
15.27595984 rev/d
Perigee alt
482.4 km
Apogee alt
483.6 km
Semi-major
6,861.1 km
B*
1.5549e-4
RAAN
218.9059°
Arg perigee
304.6630°
Mean anomaly
55.4135°
Rev number
7,832

§ Raw data

STARLINK-327311 62493U 25003G   26144.90654002  .00004021  00000+0  15549-3 0  99902 62493  42.9998 218.9059 0000918 304.6630  55.4135 15.27595984 78329

JSON: /api/v1/satellites/62493 · /tle

For live sub-satellite position, see the globe view (requires WebGL).

§ Visibility from observer

Set your observer location to see the next 7 days of passes ≥ 10°. The values pass through the URL so the page stays shareable.

No JS? Fill the form by hand. The geolocation button needs JavaScript.